Year,Month,Day,Hour,Minute,Value (Times are PST for windgust in km/hr)
2020,11,16,00,00,11.30
2020,11,16,00,01,11.30
2020,11,16,00,02,14.50
2020,11,16,00,03,14.50
2020,11,16,00,04,16.10
2020,11,16,00,05,16.10
2020,11,16,00,06,17.70
2020,11,16,00,07,17.70
2020,11,16,00,08,16.10
2020,11,16,00,09,14.50
2020,11,16,00,10,12.90
2020,11,16,00,11,17.70
2020,11,16,00,12,19.30
2020,11,16,00,13,17.70
2020,11,16,00,14,19.30
2020,11,16,00,15,20.90
2020,11,16,00,16,19.30
2020,11,16,00,17,17.70
2020,11,16,00,18,17.70
2020,11,16,00,19,16.10
2020,11,16,00,20,17.70
2020,11,16,00,21,17.70
2020,11,16,00,22,16.10
2020,11,16,00,23,17.70
2020,11,16,00,24,17.70
2020,11,16,00,25,17.70
2020,11,16,00,26,17.70
2020,11,16,00,27,17.70
2020,11,16,00,28,17.70
2020,11,16,00,29,17.70
2020,11,16,00,30,17.70
2020,11,16,00,31,16.10
2020,11,16,00,32,12.90
2020,11,16,00,33,9.60
2020,11,16,00,34,8.10
2020,11,16,00,35,6.40
2020,11,16,00,36,3.20
2020,11,16,00,37,1.60
2020,11,16,00,39,1.60
2020,11,16,00,40,1.60
2020,11,16,00,41,4.80
2020,11,16,00,42,4.80
2020,11,16,00,43,1.60
2020,11,16,00,44,4.80
2020,11,16,00,45,3.20
2020,11,16,00,46,3.20
2020,11,16,00,47,4.80
2020,11,16,00,48,3.20
2020,11,16,00,49,4.80
2020,11,16,00,50,4.80
2020,11,16,00,51,3.20
2020,11,16,00,52,3.20
2020,11,16,00,53,4.80
2020,11,16,00,54,4.80
2020,11,16,00,55,3.20
2020,11,16,00,56,4.80
2020,11,16,00,57,6.40
2020,11,16,00,58,6.40
2020,11,16,00,59,4.80
2020,11,16,01,00,11.30
2020,11,16,01,01,8.10
2020,11,16,01,02,6.40
2020,11,16,01,03,6.40
2020,11,16,01,04,8.10
2020,11,16,01,05,9.60
2020,11,16,01,06,9.60
2020,11,16,01,07,9.60
2020,11,16,01,08,6.40
2020,11,16,01,09,8.10
2020,11,16,01,10,8.10
2020,11,16,01,11,4.80
2020,11,16,01,12,4.80
2020,11,16,01,13,4.80
2020,11,16,01,14,4.80
2020,11,16,01,15,6.40
2020,11,16,01,16,8.10
2020,11,16,01,17,4.80
2020,11,16,01,18,6.40
2020,11,16,01,19,9.60
2020,11,16,01,20,11.30
2020,11,16,01,21,9.60
2020,11,16,01,22,9.60
2020,11,16,01,23,9.60
2020,11,16,01,24,11.30
2020,11,16,01,25,11.30
2020,11,16,01,26,9.60
2020,11,16,01,27,9.60
2020,11,16,01,28,9.60
2020,11,16,01,29,8.10
2020,11,16,01,30,16.10
2020,11,16,01,31,16.10
2020,11,16,01,32,19.30
2020,11,16,01,33,11.30
2020,11,16,01,34,11.30
2020,11,16,01,35,11.30
2020,11,16,01,36,14.50
2020,11,16,01,37,14.50
2020,11,16,01,38,14.50
2020,11,16,01,39,14.50
2020,11,16,01,40,9.60
2020,11,16,01,41,9.60
2020,11,16,01,42,8.10
2020,11,16,01,43,11.30
2020,11,16,01,44,9.60
2020,11,16,01,45,9.60
2020,11,16,01,46,8.10
2020,11,16,01,47,8.10
2020,11,16,01,48,8.10
2020,11,16,01,49,8.10
2020,11,16,01,50,6.40
2020,11,16,01,51,8.10
2020,11,16,01,52,9.60
2020,11,16,01,53,8.10
2020,11,16,01,54,9.60
2020,11,16,01,55,8.10
2020,11,16,01,56,8.10
2020,11,16,01,57,6.40
2020,11,16,01,58,9.60
2020,11,16,01,59,9.60
2020,11,16,02,00,6.40
2020,11,16,02,01,9.60
2020,11,16,02,02,9.60
2020,11,16,02,03,8.10
2020,11,16,02,04,6.40
2020,11,16,02,05,4.80
2020,11,16,02,06,9.60
2020,11,16,02,07,9.60
2020,11,16,02,08,14.50
2020,11,16,02,09,12.90
2020,11,16,02,10,9.60
2020,11,16,02,11,14.50
2020,11,16,02,12,14.50
2020,11,16,02,13,8.10
2020,11,16,02,14,9.60
2020,11,16,02,15,9.60
2020,11,16,02,16,6.40
2020,11,16,02,17,9.60
2020,11,16,02,18,9.60
2020,11,16,02,19,9.60
2020,11,16,02,20,8.10
2020,11,16,02,21,16.10
2020,11,16,02,22,17.70
2020,11,16,02,23,16.10
2020,11,16,02,24,16.10
2020,11,16,02,25,16.10
2020,11,16,02,26,12.90
2020,11,16,02,27,12.90
2020,11,16,02,28,11.30
2020,11,16,02,29,11.30
2020,11,16,02,30,14.50
2020,11,16,02,31,20.90
2020,11,16,02,32,16.10
2020,11,16,02,33,16.10
2020,11,16,02,34,14.50
2020,11,16,02,35,14.50
2020,11,16,02,36,11.30
2020,11,16,02,37,11.30
2020,11,16,02,38,11.30
2020,11,16,02,39,9.60
2020,11,16,02,40,11.30
2020,11,16,02,41,11.30
2020,11,16,02,42,11.30
2020,11,16,02,43,11.30
2020,11,16,02,44,11.30
2020,11,16,02,45,9.60
2020,11,16,02,46,9.60
2020,11,16,02,47,6.40
2020,11,16,02,48,4.80
2020,11,16,02,49,3.20
2020,11,16,02,50,8.10
2020,11,16,02,51,8.10
2020,11,16,02,52,6.40
2020,11,16,02,53,4.80
2020,11,16,02,54,4.80
2020,11,16,02,55,4.80
2020,11,16,02,56,6.40
2020,11,16,02,57,6.40
2020,11,16,02,58,4.80
2020,11,16,02,59,4.80
2020,11,16,03,00,4.80
2020,11,16,03,01,4.80
2020,11,16,03,02,4.80
2020,11,16,03,03,6.40
2020,11,16,03,04,3.20
2020,11,16,03,05,3.20
2020,11,16,03,06,4.80
2020,11,16,03,07,4.80
2020,11,16,03,08,4.80
2020,11,16,03,09,4.80
2020,11,16,03,10,4.80
2020,11,16,03,11,3.20
2020,11,16,03,12,3.20
2020,11,16,03,13,4.80
2020,11,16,03,14,4.80
2020,11,16,03,15,6.40
2020,11,16,03,16,6.40
2020,11,16,03,17,6.40
2020,11,16,03,18,6.40
2020,11,16,03,19,4.80
2020,11,16,03,20,4.80
2020,11,16,03,21,4.80
2020,11,16,03,22,4.80
2020,11,16,03,23,4.80
2020,11,16,03,24,6.40
2020,11,16,03,25,6.40
2020,11,16,03,26,6.40
2020,11,16,03,27,4.80
2020,11,16,03,28,4.80
2020,11,16,03,29,8.10
2020,11,16,03,30,6.40
2020,11,16,03,31,4.80
2020,11,16,03,32,6.40
2020,11,16,03,33,6.40
2020,11,16,03,34,6.40
2020,11,16,03,35,6.40
2020,11,16,03,36,6.40
2020,11,16,03,37,8.10
2020,11,16,03,38,8.10
2020,11,16,03,39,8.10
2020,11,16,03,40,8.10
2020,11,16,03,41,9.60
2020,11,16,03,42,9.60
2020,11,16,03,43,9.60
2020,11,16,03,44,8.10
2020,11,16,03,45,9.60
2020,11,16,03,46,9.60
2020,11,16,03,47,9.60
2020,11,16,03,48,9.60
2020,11,16,03,49,9.60
2020,11,16,03,50,9.60
2020,11,16,03,51,9.60
2020,11,16,03,52,11.30
2020,11,16,03,53,9.60
2020,11,16,03,54,9.60
2020,11,16,03,55,9.60
2020,11,16,03,56,11.30
2020,11,16,03,57,11.30
2020,11,16,03,58,11.30
2020,11,16,03,59,11.30
2020,11,16,04,00,9.60
2020,11,16,04,01,11.30
2020,11,16,04,02,9.60
2020,11,16,04,03,11.30
2020,11,16,04,04,9.60
2020,11,16,04,05,9.60
2020,11,16,04,06,9.60
2020,11,16,04,07,9.60
2020,11,16,04,08,9.60
2020,11,16,04,09,9.60
2020,11,16,04,10,9.60
2020,11,16,04,11,9.60
2020,11,16,04,12,9.60
2020,11,16,04,13,9.60
2020,11,16,04,14,9.60
2020,11,16,04,15,9.60
2020,11,16,04,16,9.60
2020,11,16,04,17,9.60
2020,11,16,04,18,9.60
2020,11,16,04,19,9.60
2020,11,16,04,20,9.60
2020,11,16,04,21,9.60
2020,11,16,04,22,8.10
2020,11,16,04,23,9.60
2020,11,16,04,24,9.60
2020,11,16,04,25,8.10
2020,11,16,04,26,9.60
2020,11,16,04,27,8.10
2020,11,16,04,28,8.10
2020,11,16,04,29,9.60
2020,11,16,04,30,8.10
2020,11,16,04,31,9.60
2020,11,16,04,32,9.60
2020,11,16,04,33,11.30
2020,11,16,04,34,11.30
2020,11,16,04,35,9.60
2020,11,16,04,36,8.10
2020,11,16,04,37,8.10
2020,11,16,04,38,8.10
2020,11,16,04,39,8.10
2020,11,16,04,40,8.10
2020,11,16,04,41,8.10
2020,11,16,04,42,8.10
2020,11,16,04,43,8.10
2020,11,16,04,44,8.10
2020,11,16,04,45,8.10
2020,11,16,04,46,9.60
2020,11,16,04,47,9.60
2020,11,16,04,48,8.10
2020,11,16,04,49,8.10
2020,11,16,04,50,8.10
2020,11,16,04,51,9.60
2020,11,16,04,52,8.10
2020,11,16,04,53,9.60
2020,11,16,04,54,8.10
2020,11,16,04,55,8.10
2020,11,16,04,56,8.10
2020,11,16,04,57,11.30
2020,11,16,04,58,11.30
2020,11,16,04,59,11.30
2020,11,16,05,00,11.30
2020,11,16,05,01,9.60
2020,11,16,05,02,9.60
2020,11,16,05,03,8.10
2020,11,16,05,04,9.60
2020,11,16,05,05,8.10
2020,11,16,05,06,6.40
2020,11,16,05,07,11.30
2020,11,16,05,08,8.10
2020,11,16,05,09,9.60
2020,11,16,05,10,9.60
2020,11,16,05,11,9.60
2020,11,16,05,12,8.10
2020,11,16,05,13,11.30
2020,11,16,05,14,9.60
2020,11,16,05,15,11.30
2020,11,16,05,16,11.30
2020,11,16,05,17,11.30
2020,11,16,05,18,11.30
2020,11,16,05,19,11.30
2020,11,16,05,20,11.30
2020,11,16,05,21,11.30
2020,11,16,05,22,11.30
2020,11,16,05,23,9.60
2020,11,16,05,24,8.10
2020,11,16,05,25,8.10
2020,11,16,05,26,11.30
2020,11,16,05,27,11.30
2020,11,16,05,28,8.10
2020,11,16,05,29,11.30
2020,11,16,05,30,11.30
2020,11,16,05,31,14.50
2020,11,16,05,32,9.60
2020,11,16,05,33,8.10
2020,11,16,05,34,9.60
2020,11,16,05,35,6.40
2020,11,16,05,36,14.50
2020,11,16,05,37,8.10
2020,11,16,05,38,6.40
2020,11,16,05,39,9.60
2020,11,16,05,40,9.60
2020,11,16,05,41,11.30
2020,11,16,05,42,11.30
2020,11,16,05,43,9.60
2020,11,16,05,44,14.50
2020,11,16,05,45,14.50
2020,11,16,05,46,8.10
2020,11,16,05,47,14.50
2020,11,16,05,48,14.50
2020,11,16,05,49,14.50
2020,11,16,05,50,11.30
2020,11,16,05,51,11.30
2020,11,16,05,52,11.30
2020,11,16,05,53,11.30
2020,11,16,05,54,16.10
2020,11,16,05,55,16.10
2020,11,16,05,56,16.10
2020,11,16,05,57,17.70
2020,11,16,05,58,16.10
2020,11,16,05,59,16.10
2020,11,16,06,00,17.70
2020,11,16,06,01,16.10
2020,11,16,06,02,19.30
2020,11,16,06,03,22.50
2020,11,16,06,04,17.70
2020,11,16,06,05,17.70
2020,11,16,06,06,14.50
2020,11,16,06,07,14.50
2020,11,16,06,08,14.50
2020,11,16,06,09,17.70
2020,11,16,06,10,16.10
2020,11,16,06,11,16.10
2020,11,16,06,12,16.10
2020,11,16,06,13,16.10
2020,11,16,06,14,19.30
2020,11,16,06,15,19.30
2020,11,16,06,16,16.10
2020,11,16,06,17,12.90
2020,11,16,06,18,14.50
2020,11,16,06,19,14.50
2020,11,16,06,20,16.10
2020,11,16,06,21,17.70
2020,11,16,06,22,16.10
2020,11,16,06,23,8.10
2020,11,16,06,24,16.10
2020,11,16,06,25,11.30
2020,11,16,06,26,19.30
2020,11,16,06,27,14.50
2020,11,16,06,28,19.30
2020,11,16,06,29,17.70
2020,11,16,06,30,20.90
2020,11,16,06,31,17.70
2020,11,16,06,32,17.70
2020,11,16,06,33,20.90
2020,11,16,06,34,16.10
2020,11,16,06,35,16.10
2020,11,16,06,36,17.70
2020,11,16,06,37,19.30
2020,11,16,06,38,17.70
2020,11,16,06,39,17.70
2020,11,16,06,40,16.10
2020,11,16,06,41,17.70
2020,11,16,06,42,17.70
2020,11,16,06,43,14.50
2020,11,16,06,44,11.30
2020,11,16,06,45,8.10
2020,11,16,06,46,9.60
2020,11,16,06,47,11.30
2020,11,16,06,48,11.30
2020,11,16,06,49,9.60
2020,11,16,06,50,14.50
2020,11,16,06,51,11.30
2020,11,16,06,52,12.90
2020,11,16,06,53,9.60
2020,11,16,06,54,17.70
2020,11,16,06,55,9.60
2020,11,16,06,56,11.30
2020,11,16,06,57,8.10
2020,11,16,06,58,11.30
2020,11,16,06,59,11.30
2020,11,16,07,00,11.30
2020,11,16,07,01,9.60
2020,11,16,07,02,6.40
2020,11,16,07,03,8.10
2020,11,16,07,04,9.60
2020,11,16,07,05,9.60
2020,11,16,07,06,12.90
2020,11,16,07,07,11.30
2020,11,16,07,08,8.10
2020,11,16,07,09,9.60
2020,11,16,07,10,11.30
2020,11,16,07,11,11.30
2020,11,16,07,12,14.50
2020,11,16,07,13,9.60
2020,11,16,07,14,9.60
2020,11,16,07,15,11.30
2020,11,16,07,16,11.30
2020,11,16,07,17,11.30
2020,11,16,07,18,11.30
2020,11,16,07,19,11.30
2020,11,16,07,20,9.60
2020,11,16,07,21,9.60
2020,11,16,07,22,9.60
2020,11,16,07,23,9.60
2020,11,16,07,24,9.60
2020,11,16,07,25,9.60
2020,11,16,07,26,9.60
2020,11,16,07,27,9.60
2020,11,16,07,28,9.60
2020,11,16,07,29,9.60
2020,11,16,08,02,19.30
2020,11,16,08,03,19.30
2020,11,16,08,04,19.30
2020,11,16,08,05,20.90
2020,11,16,08,06,20.90
2020,11,16,08,07,20.90
2020,11,16,08,08,20.90
2020,11,16,08,09,20.90
2020,11,16,08,10,20.90
2020,11,16,08,11,20.90
2020,11,16,08,12,20.90
2020,11,16,08,13,20.90
2020,11,16,08,14,14.50
2020,11,16,08,15,9.60
2020,11,16,08,16,9.60
2020,11,16,08,17,6.40
2020,11,16,08,18,14.50
2020,11,16,08,19,11.30
2020,11,16,08,20,9.60
2020,11,16,08,21,12.90
2020,11,16,08,22,11.30
2020,11,16,08,23,11.30
2020,11,16,08,24,20.90
2020,11,16,08,25,20.90
2020,11,16,08,26,11.30
2020,11,16,08,27,16.10
2020,11,16,08,28,9.60
2020,11,16,08,29,8.10
2020,11,16,08,30,9.60
2020,11,16,08,31,9.60
2020,11,16,08,32,11.30
2020,11,16,08,33,9.60
2020,11,16,08,34,9.60
2020,11,16,08,35,9.60
2020,11,16,08,36,9.60
2020,11,16,08,37,9.60
2020,11,16,08,38,9.60
2020,11,16,08,39,9.60
2020,11,16,08,40,9.60
2020,11,16,08,41,9.60
2020,11,16,08,42,9.60
